Weather History for Augusta, ME

Change the Weather History Date:

Saturday, June 29, 2013

  Actual Average Record
Temperature  
Mean Temperature 68 °F 68 °F  
Max Temperature 71 °F 77 °F 89 °F (1997)
Min Temperature 63 °F 58 °F 53 °F (1998)
Degree Days  
Heating Degree Days 0 1  
Month to date heating degree days 91  
Since 1 June heating degree days 91  
Since 1 July heating degree days 7417  
Cooling Degree Days 2 4  
Month to date cooling degree days 61  
Year to date cooling degree days 70  
Since 1 June cooling degree days 61  
Growing Degree Days 18 (Base 50)    
Moisture  
Dew Point 65 °F    
Average Humidity 95    
Maximum Humidity 100    
Minimum Humidity 87    
Precipitation  
Precipitation 0.02 in 0.11 in 0.61 in (2008)
Month to date precipitation 3.46  
Year to date precipitation 19.35  
Sea Level Pressure  
Sea Level Pressure 29.60 in    
Wind  
Wind Speed 6 mph (SSE)    
Max Wind Speed 12 mph    
Max Gust Speed 23 mph    
Visibility 4 miles    
Events Fog    
T = Trace of Precipitation, MM = Missing Value Source: NWS Daily Summary

Daily Weather History Graph

Daily Weather History Graph

Search for Another Location

Airport:

Trip Planner

Search our weather history database for the weather conditions in past years. The results will help you decide how hot, cold, wet, or windy it might be!

Date:

Astronomy

Jun. 29, 2013 Rise Set
Actual Time 4:58 AM EDT 8:27 PM EDT
Civil Twilight 4:21 AM EDT 9:03 PM EDT
Nautical Twilight 3:33 AM EDT 9:51 PM EDT
Astronomical Twilight 2:31 AM EDT 10:53 PM EDT
Moon No Moon Rise 12:23 PM EDT (6/29)
Length of Visible Light 16h 42m
Length of Day
15h 29m
Waning Gibbous, 56% of the Moon is Illuminated
Jun 29
Waning Gibbous
Jun 30
Last Quarter
Jul 8
New
Jul 15
First Quarter
Jul 22
Full

Hourly Weather History & Observations

Time (EDT) Temp. Dew Point Humidity Pressure Visibility Wind Dir Wind Speed Gust Speed Precip Events Conditions
12:53 AM 64.0 °F 64.0 °F 100% 29.58 in 0.2 mi Variable 6.9 mph - N/A Fog Fog
1:53 AM 64.0 °F 64.0 °F 100% 29.56 in 0.2 mi South 5.8 mph - N/A Fog Fog
2:53 AM 64.0 °F 64.0 °F 100% 29.56 in 0.2 mi SSE 4.6 mph - N/A Fog Fog
3:53 AM 64.0 °F 64.0 °F 100% 29.56 in 0.2 mi SSE 4.6 mph - N/A Fog Fog
4:53 AM 64.0 °F 63.0 °F 96% 29.57 in 0.2 mi SSE 6.9 mph - 0.01 in Fog Fog
5:53 AM 64.0 °F 64.0 °F 100% 29.56 in 0.2 mi SE 5.8 mph - N/A Fog Fog
6:53 AM 64.0 °F 64.0 °F 100% 29.58 in 0.2 mi SSE 6.9 mph - N/A Fog Fog
7:53 AM 64.0 °F 64.0 °F 100% 29.60 in 0.2 mi SSE 5.8 mph - N/A Fog Fog
8:08 AM 64.4 °F 64.4 °F 100% 29.61 in 0.5 mi Calm Calm - 0.01 in Fog Fog
8:24 AM 64.4 °F 64.4 °F 100% 29.60 in 1.2 mi South 3.5 mph - 0.01 in   Overcast
8:53 AM 64.9 °F 64.9 °F 100% 29.60 in 1.5 mi Calm Calm - 0.01 in   Overcast
9:53 AM 66.0 °F 66.0 °F 100% 29.60 in 1.0 mi SSE 5.8 mph - N/A   Overcast
10:39 AM 66.2 °F 66.2 °F 100% 29.60 in 0.8 mi SSE 5.8 mph - N/A   Overcast
10:51 AM 66.2 °F 66.2 °F 100% 29.60 in 1.0 mi SSE 6.9 mph - N/A   Overcast
10:53 AM 66.0 °F 66.0 °F 100% 29.60 in 1.0 mi SSE 9.2 mph - N/A   Overcast
11:01 AM 66.2 °F 66.2 °F 100% 29.60 in 0.8 mi SSE 8.1 mph - N/A   Mist
11:53 AM 68.0 °F 66.9 °F 96% 29.58 in 0.8 mi SSE 5.8 mph - N/A   Overcast
12:53 PM 66.9 °F 66.9 °F 100% 29.59 in 0.8 mi SSE 4.6 mph - N/A   Mist
1:00 PM 68.0 °F 66.2 °F 94% 29.59 in 1.8 mi SSE 4.6 mph - N/A   Overcast
1:04 PM 68.0 °F 66.2 °F 94% 29.59 in 3.0 mi SSE 6.9 mph - N/A   Overcast
1:53 PM 69.1 °F 66.9 °F 93% 29.60 in 7.0 mi Variable 6.9 mph - N/A   Overcast
2:41 PM 71.6 °F 68.0 °F 88% 29.59 in 9.0 mi SSE 10.4 mph - N/A   Overcast
2:53 PM 70.0 °F 68.0 °F 93% 29.60 in 9.0 mi South 8.1 mph 16.1 mph N/A   Overcast
3:09 PM 69.8 °F 68.0 °F 94% 29.60 in 7.0 mi South 5.8 mph - N/A   Overcast
3:48 PM 69.8 °F 66.2 °F 88% 29.59 in 8.0 mi South 9.2 mph 19.6 mph N/A   Overcast
3:53 PM 70.0 °F 68.0 °F 93% 29.59 in 7.0 mi SSE 9.2 mph 16.1 mph N/A   Overcast
4:53 PM 70.0 °F 66.9 °F 90% 29.59 in 7.0 mi SSE 6.9 mph - N/A   Overcast
5:37 PM 69.8 °F 66.2 °F 88% 29.59 in 8.0 mi South 11.5 mph 23.0 mph N/A   Mostly Cloudy
5:53 PM 70.0 °F 66.0 °F 87% 29.60 in 8.0 mi South 11.5 mph 18.4 mph N/A   Mostly Cloudy
6:43 PM 69.8 °F 66.2 °F 88% 29.62 in 8.0 mi South 6.9 mph - N/A   Scattered Clouds
6:53 PM 70.0 °F 66.0 °F 87% 29.63 in 8.0 mi SSE 5.8 mph - N/A   Partly Cloudy
7:53 PM 68.0 °F 64.0 °F 87% 29.64 in 9.0 mi South 5.8 mph - N/A   Mostly Cloudy
8:53 PM 66.0 °F 63.0 °F 90% 29.65 in 9.0 mi SSE 4.6 mph - N/A   Clear
9:53 PM 64.9 °F 62.1 °F 90% 29.67 in 9.0 mi South 3.5 mph - N/A   Clear
10:53 PM 64.0 °F 62.1 °F 93% 29.69 in 8.0 mi SSW 3.5 mph - N/A   Scattered Clouds
11:53 PM 63.0 °F 62.1 °F 97% 29.69 in 6.0 mi South 4.6 mph - N/A   Partly Cloudy